Telfer, Australia

5:44 PM AWST on September 20, 2017 (GMT +0800)
Telfer

Weather History for YTEF - March, 2013

Change the Weather History Date:

Wednesday, March 6, 2013

  Actual Average Record
Temperature  
Mean Temperature 92 °F -  
Max Temperature 106 °F - - ()
Min Temperature 77 °F - - ()
Cooling Degree Days 26    
Growing Degree Days 42 (Base 50)    
Moisture  
Dew Point 60 °F    
Average Humidity 33    
Maximum Humidity 65    
Minimum Humidity 11    
Precipitation  
Precipitation 0.00 in - - ()
Sea Level Pressure  
Sea Level Pressure 29.68 in    
Wind  
Wind Speed 6 mph ()    
Max Wind Speed 12 mph    
Max Gust Speed -    
T = Trace of Precipitation, MM = Missing Value Source: Averaged Metar Reports

Daily Weather History Graph

Daily Weather History Graph

Search for Another Location

Airport or City:

Trip Planner

Search our weather history database for the weather conditions in past years. The results will help you decide how hot, cold, wet, or windy it might be!

Date:

Astronomy

Mar. 06, 2013 Rise Set
Actual Time 5:49 AM AWST 6:14 PM AWST
Civil Twilight 5:27 AM AWST 6:37 PM AWST
Nautical Twilight 5:01 AM AWST 7:03 PM AWST
Astronomical Twilight 4:34 AM AWST 7:29 PM AWST
Moon 12:03 AM AWST (3/6) 1:40 PM AWST (3/6)
Length of Visible Light 13h 09m
Length of Day
12h 25m
Waning Crescent, 36% of the Moon is Illuminated
Mar 6
Waning Crescent
Mar 12
New
Mar 20
First Quarter
Mar 27
Full
Apr 3
Last Quarter

Hourly Weather History & Observations

Time (AWST) Temp. Heat Index Dew Point Humidity Pressure Visibility Wind Dir Wind Speed Gust Speed Precip Events Conditions
12:00 AM 88 °F - 55 °F 23% 29.64 in - SSE 8.1 mph - -  
12:00 AM 87.8 °F 86.1 °F 55.4 °F 33% 29.68 in - SSE 8.1 mph - N/A   Unknown
1:00 AM 86.0 °F 84.2 °F 53.6 °F 33% 29.68 in - SSE 8.1 mph - N/A   Unknown
2:00 AM 82 °F - 55 °F 30% 29.63 in - ESE 9.2 mph - -  
2:00 AM 82.4 °F 81.7 °F 55.4 °F 39% 29.68 in - ESE 9.2 mph - N/A   Unknown
3:00 AM 84 °F - 57 °F 30% 29.63 in - SSE 5.8 mph - -  
3:00 AM 84.2 °F 83.5 °F 57.2 °F 40% 29.68 in - SSE 5.8 mph - N/A   Unknown
4:00 AM 80.6 °F 81.5 °F 60.8 °F 51% 29.71 in - SE 5.8 mph - N/A   Unknown
5:00 AM 78 °F - 64 °F 52% 29.66 in - ESE 5.8 mph - -  
5:00 AM 77.0 °F - 64.4 °F 65% 29.71 in - ESE 5.8 mph - N/A   Unknown
6:00 AM 78 °F - 67 °F 61% 29.68 in - ESE 1.2 mph - -  
6:00 AM 78.8 °F - 66.2 °F 65% 29.74 in - ESE 1.2 mph - N/A   Unknown
7:00 AM 84.2 °F 88.4 °F 69.8 °F 62% 29.74 in - North 4.6 mph - N/A   Unknown
8:00 AM 88 °F - 70 °F 45% 29.70 in - North 9.2 mph - -  
8:00 AM 87.8 °F 92.6 °F 69.8 °F 55% 29.74 in - North 9.2 mph - N/A   Unknown
9:00 AM 93 °F - 67 °F 33% 29.70 in - NNE 11.5 mph - -  
9:00 AM 93.2 °F 96.2 °F 66.2 °F 41% 29.77 in - NNE 11.5 mph - N/A   Unknown
10:00 AM 96.8 °F 100.7 °F 66.2 °F 37% 29.74 in - NNE 8.1 mph - N/A   Unknown
11:00 AM 99 °F - 63 °F 21% 29.68 in - NNW 8.1 mph - -  
11:00 AM 98.6 °F 100.0 °F 62.6 °F 30% 29.74 in - NNW 8.1 mph - N/A   Unknown
12:00 PM 101 °F - 60 °F 17% 29.65 in - NNW 4.6 mph - -  
12:00 PM 100.4 °F 101.3 °F 60.8 °F 27% 29.71 in - NNW 4.6 mph - N/A   Unknown
1:00 PM 104.0 °F 103.4 °F 57.2 °F 21% 29.68 in - SSW 9.2 mph - N/A   Unknown
2:00 PM 103 °F - 56 °F 13% 29.62 in - SW 5.8 mph - -  
2:00 PM 104.0 °F 102.9 °F 55.4 °F 20% 29.68 in - SW 5.8 mph - N/A   Unknown
3:00 PM 104 °F - 54 °F 11% 29.60 in - SW 6.9 mph - -  
3:00 PM 104.0 °F 102.3 °F 53.6 °F 19% 29.65 in - SSW 6.9 mph - N/A   Unknown
4:00 PM 104.0 °F 102.3 °F 53.6 °F 19% 29.65 in - South 6.9 mph - N/A   Unknown
5:00 PM 104 °F - 54 °F 11% 29.60 in - West 3.5 mph - -  
5:00 PM 104.0 °F 102.3 °F 53.6 °F 19% 29.65 in - West 3.5 mph - N/A   Unknown
6:00 PM 101 °F - 54 °F 13% 29.61 in - SW 6.9 mph - -  
6:00 PM 100.4 °F 98.4 °F 53.6 °F 21% 29.68 in - SSW 6.9 mph - N/A   Unknown
7:00 PM 98.6 °F 96.4 °F 53.6 °F 22% 29.68 in - SW 3.5 mph - N/A   Unknown
8:00 PM 96 °F - 56 °F 17% 29.66 in - SW 5.8 mph - -  
8:00 PM 96.8 °F 95.1 °F 55.4 °F 25% 29.71 in - SW 5.8 mph - N/A   Unknown
9:00 PM 89 °F - 62 °F 30% 29.68 in - ESE 5.8 mph - -  
9:00 PM 89.6 °F 90.1 °F 62.6 °F 40% 29.74 in - ESE 5.8 mph - N/A   Unknown
10:00 PM 89.6 °F 89.5 °F 60.8 °F 38% 29.74 in - SE 3.5 mph - N/A   Unknown
11:00 PM 87 °F - 62 °F 33% 29.67 in - SSE 3.5 mph - -  
11:00 PM 87.8 °F 88.5 °F 62.6 °F 43% 29.74 in - SSE 3.5 mph - N/A   Unknown